Date,TemperatureHighF,TemperatureAvgF,TemperatureLowF,DewpointHighF,DewpointAvgF,DewpointLowF,HumidityHigh,HumidityAvg,HumidityLow,PressureMaxIn,PressureMinIn,WindSpeedMaxMPH,WindSpeedAvgMPH,GustSpeedMaxMPH,PrecipitationSumIn
2013-2-1,69.1,47.9,29.8,40.3,31.6,23.5,98,62,18,30.30,30.18,6,0,14,0.00
2013-2-2,71.5,49.2,31.8,41.5,33.7,28.1,89,62,20,30.27,30.10,7,0,11,0.00
2013-2-3,72.0,50.3,32.4,50.3,36.7,27.4,97,66,20,30.13,30.00,11,1,14,0.00
2013-2-4,67.3,49.5,33.8,47.0,35.4,29.8,98,65,26,30.07,29.99,5,0,8,0.00
2013-2-5,75.6,55.0,33.5,51.8,43.0,30.9,96,68,35,30.05,29.94,8,0,14,0.00
2013-2-6,73.2,63.9,56.5,60.3,56.1,50.6,94,76,58,30.07,29.98,4,0,7,0.01
2013-2-7,77.9,66.3,56.9,66.3,61.6,56.1,99,87,56,30.03,29.79,12,1,16,0.23
2013-2-8,79.4,66.0,53.1,66.1,58.5,50.2,98,79,45,30.03,29.82,8,1,13,0.00
2013-2-9,74.4,58.9,47.9,54.9,50.3,46.4,99,76,44,30.17,30.02,7,1,14,0.00
2013-2-10,78.8,69.4,51.7,57.9,55.8,50.6,96,64,46,30.22,30.10,9,2,13,0.00
2013-2-11,83.2,68.6,55.6,62.4,58.8,53.9,98,73,44,30.14,30.01,15,2,19,0.00
2013-2-12,84.5,70.4,59.0,67.6,62.6,56.7,99,79,46,30.03,29.86,11,2,15,0.00
2013-2-13,79.6,69.9,63.1,69.4,66.5,62.5,98,90,67,29.90,29.78,13,3,22,0.32
2013-2-14,62.9,57.8,51.3,62.3,56.4,50.8,99,95,83,30.03,29.88,5,0,11,0.29
2013-2-15,71.6,54.6,43.9,51.1,45.9,39.1,99,77,31,30.04,29.91,6,1,9,0.00
2013-2-16,67.3,52.0,44.2,49.5,40.0,20.7,98,68,36,30.08,29.88,11,2,18,0.00
2013-2-17,56.6,41.1,28.5,25.8,19.0,10.0,82,47,16,30.37,30.08,9,1,15,0.00
2013-2-18,67.4,46.8,25.0,44.2,31.5,21.7,93,61,28,30.40,30.24,8,1,14,0.00
2013-2-19,78.8,61.7,42.1,55.8,50.1,37.7,96,69,38,30.25,30.06,12,2,22,0.00
2013-2-20,73.5,61.8,50.7,59.5,49.2,41.5,93,66,38,30.17,30.06,8,1,12,0.00
2013-2-21,80.5,62.0,44.3,60.8,52.6,41.8,96,74,49,30.14,30.01,5,0,10,0.00
2013-2-22,85.3,71.2,57.8,66.5,61.4,53.8,99,74,46,30.10,30.00,10,1,16,0.00
2013-2-23,85.7,73.3,64.7,67.5,65.1,61.2,97,78,47,30.02,29.90,13,2,20,0.00
2013-2-24,75.8,70.3,63.9,69.2,66.0,60.0,97,87,70,30.00,29.89,7,0,12,0.04
2013-2-25,86.1,70.8,61.6,69.5,64.1,59.9,99,82,43,29.96,29.79,10,1,19,0.01
2013-2-26,77.6,69.1,62.3,70.6,63.7,56.2,98,84,49,29.88,29.72,13,3,20,0.45
2013-2-27,72.7,62.0,52.3,59.1,49.2,43.9,90,65,39,30.00,29.88,7,1,13,0.00
2013-2-28,58.1,48.8,41.6,45.9,43.4,39.4,92,82,57,29.99,29.94,5,0,8,0.00